| time (UTC) | temp F | wind direction | speed MPH | gust MPH | rain 1hr in | rain 24hr in | rain mn in | humidity % | barometer mb |
| 20260902224555 | 71 | 309 | 0.0 | 2.0 | 0.00 | 0.20 | 0.20 | 61 | 1014.9 |
| 20260902223048 | 72 | 309 | 0.0 | 2.0 | 0.00 | 0.20 | 0.20 | 60 | 1014.8 |
| 20260902221550 | 72 | 311 | 0.0 | 5.0 | 0.00 | 0.20 | 0.20 | 61 | 1014.8 |
| 20260902220045 | 72 | 5 | 1.0 | 4.0 | 0.00 | 0.20 | 0.20 | 62 | 1015.0 |
| 20260902214543 | 72 | 60 | 0.0 | 1.0 | 0.00 | 0.20 | 0.20 | 67 | 1015.1 |
| 20260902213048 | 70 | 64 | 0.0 | 2.0 | 0.00 | 0.20 | 0.20 | 67 | 1015.3 |
| 20260902211546 | 70 | 9 | 0.0 | 4.0 | 0.00 | 0.20 | 0.20 | 67 | 1015.3 |
| 20260902210036 | 70 | 321 | 0.0 | 3.0 | 0.00 | 0.20 | 0.20 | 69 | 1015.5 |
| 20260902204534 | 69 | 321 | 0.0 | 2.0 | 0.00 | 0.20 | 0.20 | 70 | 1015.6 |
| 20260902203031 | 69 | 321 | 0.0 | 3.0 | 0.00 | 0.20 | 0.20 | 71 | 1015.6 |
| 20260902201536 | 68 | 338 | 0.0 | 4.0 | 0.00 | 0.20 | 0.20 | 75 | 1015.6 |
| 20260902200031 | 68 | 21 | 0.0 | 3.0 | 0.00 | 0.20 | 0.20 | 77 | 1015.8 |
| 20260902194524 | 67 | 21 | 0.0 | 1.0 | 0.00 | 0.20 | 0.20 | 83 | 1015.9 |
| 20260902193021 | 66 | 59 | 0.0 | 1.0 | 0.00 | 0.20 | 0.20 | 85 | 1016.0 |
| 20260902191528 | 65 | 360 | 0.0 | 3.0 | 0.00 | 0.20 | 0.20 | 85 | 1016.2 |
| 20260902190015 | 64 | 360 | 0.0 | 1.0 | 0.00 | 0.20 | 0.20 | 83 | 1016.3 |
| 20260902184513 | 63 | 360 | 0.0 | 1.0 | 0.00 | 0.20 | 0.20 | 84 | 1016.3 |
| 20260902183017 | 63 | 360 | 0.0 | 0.0 | 0.00 | 0.20 | 0.20 | 83 | 1016.4 |
| 20260902181511 | 63 | 360 | 0.0 | 0.0 | 0.00 | 0.20 | 0.20 | 83 | 1016.3 |
| 20260902180012 | 63 | 360 | 0.0 | 0.0 | 0.00 | 0.20 | 0.20 | 83 | 1016.3 |
| 20260902174507 | 63 | 360 | 0.0 | 1.0 | 0.00 | 0.20 | 0.20 | 82 | 1016.1 |
| 20260902173005 | 62 | 360 | 0.0 | 1.0 | 0.00 | 0.20 | 0.20 | 81 | 1016.1 |
| 20260902171504 | 62 | 360 | 0.0 | 1.0 | 0.00 | 0.20 | 0.20 | 81 | 1016.0 |
| 20260902170100 | 62 | 360 | 0.0 | 1.0 | 0.00 | 0.20 | 0.20 | 82 | 1015.8 |
| 20260902164558 | 62 | 360 | 0.0 | 1.0 | 0.00 | 0.20 | 0.20 | 82 | 1015.5 |
| 20260902163104 | 61 | 360 | 0.0 | 0.0 | 0.00 | 0.20 | 0.20 | 81 | 1015.6 |
| 20260902161557 | 61 | 360 | 0.0 | 0.0 | 0.00 | 0.20 | 0.20 | 83 | 1015.5 |
| 20260902160059 | 61 | 360 | 0.0 | 0.0 | 0.01 | 0.20 | 0.20 | 83 | 1015.4 |
| 20260902154555 | 60 | 360 | 0.0 | 1.0 | 0.02 | 0.20 | 0.20 | 83 | 1015.4 |
| 20260902153051 | 60 | 360 | 0.0 | 0.0 | 0.03 | 0.20 | 0.20 | 83 | 1015.5 |
| 20260902151549 | 60 | 360 | 0.0 | 0.0 | 0.04 | 0.20 | 0.20 | 83 | 1015.3 |
| 20260902150047 | 60 | 360 | 0.0 | 3.0 | 0.04 | 0.19 | 0.19 | 84 | 1015.3 |
| 20260902144546 | 60 | 360 | 0.0 | 0.0 | 0.04 | 0.18 | 0.18 | 83 | 1015.2 |
| 20260902143046 | 60 | 360 | 0.0 | 0.0 | 0.05 | 0.17 | 0.17 | 83 | 1015.1 |
| 20260902141545 | 60 | 360 | 0.0 | 0.0 | 0.05 | 0.16 | 0.16 | 84 | 1014.8 |
| 20260902140043 | 60 | 360 | 0.0 | 0.0 | 0.05 | 0.15 | 0.15 | 84 | 1014.5 |
| 20260902134545 | 60 | 360 | 0.0 | 0.0 | 0.06 | 0.14 | 0.14 | 84 | 1014.4 |
| 20260902133044 | 60 | 360 | 0.0 | 0.0 | 0.05 | 0.12 | 0.12 | 84 | 1014.5 |
| 20260902131543 | 60 | 360 | 0.0 | 0.0 | 0.07 | 0.11 | 0.11 | 84 | 1014.5 |
| 20260902130043 | 60 | 360 | 0.0 | 0.0 | 0.08 | 0.10 | 0.10 | 85 | 1014.4 |
| 20260902124542 | 60 | 360 | 0.0 | 0.0 | 0.07 | 0.08 | 0.08 | 85 | 1014.2 |
| 20260902123049 | 60 | 360 | 0.0 | 0.0 | 0.07 | 0.07 | 0.07 | 85 | 1014.3 |
| 20260902121539 | 60 | 360 | 0.0 | 0.0 | 0.04 | 0.04 | 0.04 | 85 | 1014.3 |
| 20260902120038 | 60 | 360 | 0.0 | 0.0 | 0.02 | 0.02 | 0.02 | 86 | 1014.2 |
| 20260902114540 | 60 | 360 | 0.0 | 0.0 | 0.01 | 0.01 | 0.01 | 86 | 1014.1 |
| 20260902113044 | 60 | 360 | 0.0 | 0.0 | 0.00 | 0.00 | 0.00 | 86 | 1014.2 |
| 20260902111541 | 60 | 360 | 0.0 | 0.0 | 0.00 | 0.00 | 0.00 | 86 | 1014.2 |
| 20260902110043 | 60 | 360 | 0.0 | 0.0 | 0.00 | 0.00 | 0.00 | 86 | 1014.2 |
| 20260902104533 | 60 | 360 | 0.0 | 0.0 | 0.00 | 0.00 | 0.00 | 86 | 1014.3 |
| 20260902103030 | 60 | 360 | 0.0 | 0.0 | 0.00 | 0.00 | 0.00 | 86 | 1014.4 |
| 20260902101529 | 59 | 360 | 0.0 | 0.0 | 0.00 | 0.00 | 0.00 | 86 | 1014.5 |
| 20260902100026 | 59 | 360 | 0.0 | 0.0 | 0.00 | 0.00 | 0.00 | 86 | 1014.6 |
| 20260902094521 | 59 | 360 | 0.0 | 0.0 | 0.00 | 0.00 | 0.00 | 86 | 1014.7 |
| 20260902093018 | 59 | 360 | 0.0 | 0.0 | 0.00 | 0.00 | 0.00 | 86 | 1014.7 |
| 20260902091517 | 59 | 360 | 0.0 | 0.0 | 0.00 | 0.00 | 0.00 | 86 | 1014.8 |
| 20260902090017 | 58 | 360 | 0.0 | 0.0 | 0.00 | 0.00 | 0.00 | 86 | 1014.9 |
| 20260902084522 | 58 | 360 | 0.0 | 0.0 | 0.00 | 0.00 | 0.00 | 86 | 1015.0 |
| 20260902083015 | 58 | 360 | 0.0 | 0.0 | 0.00 | 0.00 | 0.00 | 86 | 1015.2 |
| 20260902081511 | 58 | 360 | 0.0 | 0.0 | 0.00 | 0.00 | 0.00 | 86 | 1015.0 |
| 20260902080010 | 57 | 360 | 0.0 | 0.0 | 0.00 | 0.00 | 0.00 | 86 | 1015.0 |
| 20260902074508 | 57 | 360 | 0.0 | 0.0 | 0.00 | 0.00 | 0.00 | 86 | 1015.0 |
| 20260902073006 | 57 | 360 | 0.0 | 0.0 | 0.00 | 0.00 | 0.00 | 86 | 1015.1 |
| 20260902071505 | 57 | 360 | 0.0 | 0.0 | 0.00 | 0.00 | 0.00 | 85 | 1015.0 |
| 20260902070003 | 56 | 360 | 0.0 | 0.0 | 0.00 | 0.00 | 0.00 | 85 | 1015.0 |
| 20260902064502 | 56 | 360 | 0.0 | 0.0 | 0.00 | 0.00 | 0.00 | 85 | 1014.9 |
| 20260902063002 | 56 | 360 | 0.0 | 0.0 | 0.00 | 0.00 | 0.00 | 84 | 1014.9 |
| 20260902061502 | 57 | 360 | 0.0 | 0.0 | 0.00 | 0.00 | 0.00 | 83 | 1014.7 |
| 20260902060109 | 57 | 360 | 0.0 | 0.0 | 0.00 | 0.00 | 0.00 | 83 | 1014.8 |
| 20260902054600 | 58 | 360 | 0.0 | 0.0 | 0.00 | 0.00 | 0.00 | 82 | 1014.9 |
| 20260902053116 | 58 | 360 | 0.0 | 0.0 | 0.00 | 0.00 | 0.00 | 81 | 1014.9 |
| 20260902051601 | 59 | 360 | 0.0 | 0.0 | 0.00 | 0.00 | 0.00 | 81 | 1014.8 |
| 20260902050113 | 59 | 360 | 0.0 | 0.0 | 0.00 | 0.00 | 0.00 | 80 | 1014.9 |
| 20260902044556 | 60 | 360 | 0.0 | 0.0 | 0.00 | 0.00 | 0.00 | 80 | 1014.7 |
| 20260902043100 | 60 | 360 | 0.0 | 0.0 | 0.00 | 0.00 | 0.00 | 80 | 1014.6 |
| 20260902041555 | 61 | 360 | 0.0 | 0.0 | 0.00 | 0.00 | 0.00 | 78 | 1014.6 |
| 20260902040055 | 61 | 360 | 0.0 | 0.0 | 0.00 | 0.00 | 0.00 | 78 | 1014.4 |
| 20260902034557 | 62 | 360 | 0.0 | 0.0 | 0.00 | 0.00 | 0.00 | 76 | 1014.3 |
| 20260902033056 | 63 | 360 | 0.0 | 0.0 | 0.00 | 0.00 | 0.00 | 73 | 1014.3 |
| 20260902031553 | 63 | 360 | 0.0 | 0.0 | 0.00 | 0.00 | 0.00 | 69 | 1014.2 |
| 20260902030052 | 64 | 360 | 0.0 | 0.0 | 0.00 | 0.00 | 0.00 | 67 | 1014.0 |
| 20260902024551 | 64 | 360 | 0.0 | 0.0 | 0.00 | 0.00 | 0.00 | 66 | 1014.0 |
| 20260902023055 | 65 | 360 | 0.0 | 0.0 | 0.00 | 0.00 | 0.00 | 65 | 1014.1 |
| 20260902021551 | 66 | 360 | 0.0 | 0.0 | 0.00 | 0.00 | 0.00 | 64 | 1013.9 |
| 20260902020054 | 67 | 360 | 0.0 | 1.0 | 0.00 | 0.00 | 0.00 | 62 | 1013.9 |
| 20260902014551 | 68 | 360 | 0.0 | 0.0 | 0.00 | 0.00 | 0.00 | 60 | 1014.0 |
| 20260902013050 | 68 | 360 | 0.0 | 1.0 | 0.00 | 0.00 | 0.00 | 59 | 1014.0 |
| 20260902011553 | 69 | 360 | 0.0 | 4.0 | 0.00 | 0.00 | 0.00 | 57 | 1013.9 |
| 20260902004548 | 70 | 161 | 0.0 | 3.0 | 0.00 | 0.00 | 0.00 | 55 | 1013.6 |
| 20260902003048 | 70 | 180 | 0.0 | 5.0 | 0.00 | 0.00 | 0.00 | 56 | 1013.5 |
| 20260902001547 | 70 | 312 | 0.0 | 1.0 | 0.00 | 0.00 | 0.00 | 55 | 1013.5 |
| 20260902000050 | 70 | 314 | 0.0 | 6.0 | 0.00 | 0.00 | 0.00 | 56 | 1013.6 |
| 20260901234546 | 70 | 355 | 0.0 | 1.0 | 0.00 | 0.00 | 0.00 | 54 | 1013.5 |
| 20260901233046 | 70 | 355 | 0.0 | 1.0 | 0.00 | 0.00 | 0.00 | 54 | 1013.4 |
| 20260901231545 | 70 | 355 | 0.0 | 3.0 | 0.00 | 0.00 | 0.00 | 56 | 1013.4 |
| 20260901230045 | 71 | 355 | 0.0 | 3.0 | 0.00 | 0.00 | 0.00 | 56 | 1013.4 |